COSMOS 2251 DEB

Satellite information

Favourite Embed

Satellite Type and Status

DEBRISIN ORBIT

Key statistics

Satellite COSMOS 2251 DEB at a glance.

Uptime

11772

Days in orbit

Revolutions

≈ 14.8

Per day

Orbit

LEO

Low Earth Orbit

Inclination

73.9

Latest

Satellite identification and parameters

Extended collection of information and parameters for COSMOS 2251 DEB.

Object identification

Identified? True

Debris? True

Object name: COSMOS 2251 DEB

International designator: 1993-036GJ

Object number (NORAD): 33999

Object ID (CCSDS): 33999

Country: COMMONWEALTH OF INDEPENDENT STATES (CIS)

Current information (Y/N): Y

RCS size: SMALL

Orbital parameters

Period: 97.28 minutes

Inclination: 73.92 deg

SMA: 7006.611 km

Apoapsis: 660.44 km

Periapsis: 596.512 km

RAAN: 61.4179 deg

Eccentricy: 0.00456194

Argument of periapsis: 336.0325 deg

Mean anomaly: 23.8726 deg

Mean motion: 14.80269369 rev/day

Mean motion (dot): 0.00008891 rev/day2

B* drag term: 0.0011503513 1/REarth

Two-line elements (TLE)

Creation date: Sept. 8, 2025, 3:16 a.m.

Reference frame: TEME

Reference center: EARTH

Epoch: Sept. 7, 2025, 9:45 p.m. UTC

TLE line 0: 0 COSMOS 2251 DEB

TLE line 1: 1 33999U 93036GJ 25250.90670475 .00008891 00000-0 11504-2 0 9995

TLE line 2: 2 33999 73.9200 61.4179 0045619 336.0325 23.8726 14.80269369878314

Live tracking on map

Real-time ground track for satellite COSMOS 2251 DEB.

In-orbit conjunctions

A list of the most updated potential collisions computed for object COSMOS 2251 DEB.

Target Orbit TCA Probability of collision Miss distance Type
YAOGAN 1 SSO 2025-04-25 05:06:52 0.0001399978 839.0 (m) PAYLOAD

Associated space launch

Military communications satellite. Destroyed in a collision with Iridium 33.

COSMOS 2251 DEB was lifted into orbit during the mission ‘Kosmos-3M | Strela-2M 51’, on board a Kosmos-3M space rocket.

The launch took place on June 16, 1993, 4:17 a.m. from 132/1 (132L).

For more information about the launch, click the button.

Launch to space Kosmos-3M | Strela-2M 51
Kosmos-3M | Strela-2M 51

Agency: N/A

Status: Launch Successful

Launch date: June 16, 1993, 4:17 a.m. UTC

Rocket: Kosmos-3M

Launch pad: 132/1 (132L)

Location: Plesetsk Cosmodrome, Russian Federation

...

Latest news about this satellite

There are no fresh news available about this satellite. Check back as we update our databases every day.


Newsletter sign-up

Weekly statistics, charts and insights to help you stay on top of the space industry.